Retour au catalogue

MACSAT 1

M 1

ActifMilitairePO
NORAD 20607·PAYLOAD·🇺🇸 United States

Lancé May 9, 1990 depuis Vandenberg Space Force Base

Loading…

Prochains Passages (prochaines 24 heures)

TLE

FraisSource: Space-Track

Époque: Sep 14, 2026, 10:12 UTC

1 20607U 90043A   26257.42511043  .00000577  00000-0  77184-4 0  9993
2 20607  89.7511 241.5676 0091037  42.4114 318.4095 14.75249967927535

Suivez MACSAT 1 en temps réel avec AllMySat

Download on the App Store